{"data":{"norad_id":65051,"epoch":"2026-05-25T02:15:56.014848Z","epoch_age_seconds":77574,"freshness":"FRESH","line1":"1 65051U 25162J   26145.09439832 -.00000097  00000+0  58375-4 0  9997","line2":"2 65051  50.0053 348.2855 0000485  42.3873 317.7036 13.29323948 40297","mean_motion":13.29323948,"eccentricity":4.85e-5,"inclination_deg":50.0053,"raan_deg":348.2855,"arg_perigee_deg":42.3873,"mean_anomaly_deg":317.7036,"bstar":5.8375e-5,"rev_number":4029,"period_min":108.32573972405,"perigee_km":1148.9492369138,"apogee_km":1149.6793996917,"semimajor_km":7527.4513183028,"source":"CELESTRAK","updated_at":"2026-05-25T13:38:05.089081Z"}}